Theta_e
309 310 311 319 323 323 319 316 316 313 312 309 309 309 310 308 309 310 304 302 300 299 300 302 301 301 301 300 301 301 302 309 319 322 329 333 334 334 337 338 337 335 335 335 337 335 332 329 333
309 310 317 319 322 323 316 315 312 310 308 310 310 308 310 307 305 305 303 302 300 298 298 300 298 299 299 299 299 299 299 301 307 314 321 329 332 334 335 336 337 335 335 335 338 337 332 332 334
310 318 322 323 317 317 316 312 310 309 307 306 308 307 307 306 304 304 303 301 298 297 297 298 297 297 297 297 298 298 298 298 299 306 309 321 329 333 334 335 336 335 335 335 337 336 334 334 332
312 319 319 318 314 311 311 309 309 309 308 306 304 305 305 305 303 302 301 299 298 297 297 296 296 296 296 296 296 297 298 298 298 299 306 309 320 328 333 333 335 336 334 335 336 335 336 333 332
314 319 322 318 312 310 307 307 306 307 306 304 302 304 304 303 302 300 299 298 297 296 296 296 296 295 295 295 295 296 297 297 297 298 299 303 311 319 326 333 333 334 335 334 335 336 336 333 331
321 317 323 318 312 309 307 305 305 306 305 304 302 301 303 302 301 299 297 297 296 296 295 295 295 295 294 294 295 295 295 296 296 296 297 298 301 308 319 328 332 334 335 334 334 335 337 335 332
322 321 317 315 312 311 307 304 304 303 303 302 300 301 302 301 300 299 296 296 296 295 295 295 294 294 294 294 294 294 295 295 295 295 296 297 297 302 307 319 325 333 334 335 333 335 338 336 332
315 318 314 311 311 311 305 302 302 301 302 301 300 301 302 300 300 299 296 296 296 295 295 295 294 294 294 294 294 294 295 295 295 295 295 296 297 298 302 313 314 328 333 335 332 334 336 337 332
314 319 314 310 310 308 303 303 302 301 300 300 301 300 299 299 298 296 296 297 297 297 296 295 294 293 293 293 294 295 295 295 295 295 295 295 296 297 297 302 309 320 330 334 333 332 336 338 333
311 317 310 305 304 305 303 301 301 300 302 302 302 301 300 298 298 297 297 297 298 297 296 295 294 293 293 293 293 294 295 295 295 295 295 295 294 295 296 298 304 313 324 331 333 332 335 336 335
306 310 305 303 303 301 302 301 301 300 301 303 301 300 300 299 298 298 297 297 298 297 296 295 295 293 293 293 293 294 294 294 294 295 295 295 295 294 296 297 298 308 320 326 329 333 334 332 335
305 303 304 302 300 300 301 299 299 300 301 301 300 299 298 298 298 298 298 298 298 297 297 296 295 294 293 293 293 293 293 293 294 294 295 295 294 294 294 296 296 299 309 322 326 330 332 333 332
305 303 302 301 298 299 298 298 299 300 301 301 300 298 298 298 298 298 298 298 298 298 297 296 295 295 294 293 293 293 293 293 293 294 294 293 293 294 294 294 295 296 297 315 318 324 330 331 331
303 303 302 300 300 299 298 299 298 301 301 300 299 298 298 298 298 298 298 298 298 297 297 296 295 295 294 293 293 293 293 293 293 293 292 291 291 292 293 294 294 296 298 302 304 321 326 329 329
302 304 301 300 300 300 298 301 298 300 300 299 299 299 298 298 298 297 297 297 297 297 297 296 296 295 294 294 293 293 293 293 292 291 290 290 290 290 291 292 293 294 296 295 305 309 324 324 328
304 304 310 301 300 299 299 304 306 301 299 299 299 299 299 299 298 297 297 297 297 296 296 296 296 295 294 294 293 293 292 292 291 291 290 290 288 289 290 291 293 294 296 296 297 304 319 322 322
308 309 309 306 300 300 300 302 304 301 300 299 300 300 300 299 298 297 296 296 296 296 296 295 295 295 294 294 293 292 292 291 291 291 291 290 288 289 290 290 291 293 295 296 296 303 312 321 321
305 305 305 306 300 300 299 300 302 304 301 300 300 300 300 299 298 297 296 295 295 295 295 295 295 294 294 293 293 292 292 291 291 291 291 290 288 289 289 290 290 292 295 296 296 296 312 313 320
302 303 304 305 299 297 300 300 301 303 304 302 301 302 301 299 299 298 298 297 295 294 293 293 293 293 293 293 293 292 291 291 291 290 290 288 289 290 289 290 290 291 293 295 296 295 300 315 314
301 304 307 303 300 298 299 300 301 302 303 304 304 302 301 300 299 298 297 296 296 295 294 293 293 292 292 293 292 292 291 290 290 289 289 288 289 291 291 290 290 291 292 293 295 295 296 312 317
305 303 300 298 297 300 298 306 307 301 302 301 302 302 301 300 299 298 298 297 296 295 295 294 293 293 293 293 292 292 290 289 289 288 288 288 289 289 290 290 290 290 291 293 294 295 294 301 317
302 297 297 297 297 304 300 306 308 302 301 300 300 301 300 300 299 299 298 297 297 296 295 294 294 293 293 292 292 291 290 289 287 287 287 288 289 290 290 290 290 290 291 292 293 294 294 295 313
301 296 296 296 297 295 302 300 309 304 305 301 300 301 301 301 300 299 298 297 296 296 295 294 293 292 292 292 292 290 290 288 287 287 287 288 289 289 289 289 290 290 290 291 292 293 294 294 303
296 299 298 298 298 305 298 302 309 308 306 303 302 302 302 301 300 299 298 297 296 295 294 293 293 292 292 291 290 288 287 286 286 287 287 288 288 288 289 289 289 290 289 290 291 292 293 294 294
298 302 313 313 313 316 296 298 306 308 307 303 301 301 300 299 299 298 298 297 296 296 295 293 292 291 290 289 287 286 286 286 286 286 287 287 287 288 288 288 288 289 289 289 290 291 292 293 294
300 298 309 309 313 309 297 301 309 306 302 302 301 300 299 301 301 301 300 297 296 296 295 293 291 290 288 287 286 286 286 286 286 286 287 287 286 287 287 287 288 288 289 289 289 290 291 292 294
303 305 294 300 297 299 306 306 307 304 300 302 302 300 300 302 302 302 301 300 299 297 297 294 291 288 287 286 286 285 285 285 286 286 286 287 286 286 286 287 287 287 287 288 288 289 290 290 292
294 294 303 301 307 308 311 307 310 304 306 304 302 303 303 303 304 305 303 301 299 298 297 294 289 287 286 285 285 285 285 285 285 285 286 285 285 285 286 286 286 286 287 287 287 288 289 290 291
293 296 295 296 299 304 307 308 309 306 302 300 301 302 303 304 304 303 301 301 299 298 298 295 289 287 286 285 285 285 285 285 285 285 285 285 285 285 285 285 285 286 286 286 286 287 288 288 290
292 298 298 303 301 296 294 301 303 301 300 301 302 303 303 303 303 302 300 300 299 299 299 294 289 286 285 285 285 285 285 285 285 284 284 284 284 284 284 284 284 285 285 286 286 286 286 288 289
Wind_Speed
1 4 4 3 2 4 4 3 4 7 4 5 5 5 4 8 4 1 4 6 7 10 12 13 16 19 23 27 26 22 21 20 22 20 14 12 11 8 10 10 11 11 12 13 13 11 11 13 13
4 7 4 2 1 4 3 3 8 6 5 2 2 5 3 4 6 3 4 9 8 12 14 17 19 20 21 23 28 27 23 21 21 21 22 16 13 13 10 13 13 13 14 14 13 13 13 14 14
7 6 2 2 4 3 4 6 6 7 3 7 4 2 3 3 2 3 10 7 7 12 16 19 21 23 22 21 21 24 24 23 21 20 21 22 18 16 13 14 15 15 16 15 14 15 14 16 15
4 3 2 5 8 6 7 6 4 1 5 3 4 2 2 5 5 7 7 6 6 10 16 19 20 21 22 20 19 20 22 20 20 20 20 22 21 20 17 17 18 18 17 16 15 16 16 17 17
4 2 2 5 5 5 6 6 3 4 3 4 5 2 4 5 8 6 5 6 10 10 16 18 19 18 18 20 22 20 20 21 20 18 18 20 22 21 22 17 19 18 19 18 17 18 19 19 19
3 2 2 4 5 5 6 3 3 4 4 3 1 6 1 6 7 6 8 5 9 10 15 16 16 16 18 18 19 22 21 21 21 19 16 18 18 21 24 21 18 16 20 23 20 20 22 22 21
3 3 2 7 6 5 4 1 4 6 7 4 2 2 1 6 8 7 11 10 9 11 11 13 15 16 15 15 19 20 21 21 22 22 19 15 18 18 21 21 19 17 17 25 24 22 25 26 24
3 3 4 4 2 4 4 3 1 3 3 2 1 0 2 1 8 12 13 10 10 12 10 12 13 14 15 16 17 20 21 22 23 22 21 17 16 17 19 21 19 18 16 24 26 24 28 30 28
5 3 3 3 1 4 5 2 2 4 6 6 6 6 9 12 12 13 11 10 11 11 14 12 14 12 13 14 16 17 19 21 24 24 22 21 17 13 14 14 19 17 17 23 28 31 36 40 31
8 4 3 4 4 3 3 1 6 4 7 10 11 10 14 16 14 11 9 9 10 13 15 17 15 15 15 16 18 19 20 23 24 26 25 24 23 18 16 12 14 18 19 21 28 32 30 25 31
7 3 6 3 5 3 3 5 5 3 5 4 2 4 6 11 13 12 12 12 12 12 16 18 17 17 18 18 19 20 22 24 25 27 27 28 27 23 17 15 12 19 21 19 20 30 28 30 23
6 6 3 4 1 1 2 7 6 14 9 2 7 9 10 12 13 17 16 15 14 16 19 18 20 19 18 20 20 22 24 25 27 28 30 30 30 27 23 19 17 13 17 23 13 23 26 28 18
5 4 5 3 1 3 7 10 9 18 19 16 11 11 10 10 11 13 17 17 18 20 20 20 21 21 20 21 23 25 26 27 28 30 31 32 31 30 26 22 21 16 17 18 21 14 22 30 30
4 7 5 2 3 7 4 6 7 7 9 13 13 9 8 10 12 14 16 18 20 22 21 21 22 23 23 22 24 25 26 26 28 31 30 32 32 31 28 23 21 20 14 19 17 22 14 29 18
9 2 4 4 1 2 8 6 9 10 8 11 8 9 9 11 12 12 15 18 19 21 21 21 23 24 23 24 26 27 26 28 29 29 32 36 37 33 29 23 20 18 15 13 16 16 28 25 22
3 2 3 2 4 1 4 8 4 13 10 9 9 9 8 8 9 9 10 15 18 18 21 23 24 25 26 27 26 28 29 28 27 30 31 37 39 34 26 25 19 18 18 13 8 15 29 28 28
3 3 5 2 2 3 2 8 6 12 12 13 13 11 8 8 7 7 9 11 14 17 18 21 22 26 27 27 27 28 29 29 28 29 33 38 35 30 26 24 19 18 17 14 12 10 16 29 31
5 5 7 6 3 3 10 21 17 27 23 21 18 16 13 10 6 6 8 10 11 15 19 21 22 23 25 27 28 29 31 33 32 36 39 40 34 27 28 24 20 17 17 16 13 13 16 25 32
1 3 7 7 6 7 7 19 19 21 22 23 24 17 17 12 8 10 12 13 13 13 16 18 21 22 24 26 28 32 36 37 39 40 40 37 24 20 23 20 19 15 17 17 14 16 17 19 22
6 8 4 4 1 6 8 24 13 9 12 15 18 19 18 13 11 11 14 18 20 19 18 20 21 22 24 27 29 31 38 40 40 39 35 32 22 19 20 18 19 17 18 18 17 17 16 16 18
3 2 4 5 11 2 8 8 1 4 3 3 9 14 14 13 12 13 14 17 20 23 24 24 24 25 27 28 30 32 35 39 39 35 34 29 24 21 23 27 23 21 20 19 19 17 16 17 18
4 5 4 7 7 3 5 4 6 2 3 5 9 14 15 14 14 15 15 17 19 21 23 24 25 29 29 29 32 34 35 38 41 37 32 29 26 23 24 24 24 23 20 21 21 19 18 20 21
3 5 5 3 0 4 1 3 8 2 3 6 13 16 11 11 12 16 19 21 20 22 25 26 26 28 29 30 30 33 37 40 37 35 32 31 28 25 24 24 24 24 22 22 21 22 20 22 23
10 5 4 0 0 2 2 3 5 1 2 6 10 6 4 6 10 17 22 23 24 23 23 25 28 28 27 28 33 36 35 35 33 35 32 31 31 28 25 25 26 26 24 23 23 22 22 24 26
2 2 3 4 2 4 5 2 9 8 3 6 7 5 1 5 12 18 22 25 25 28 28 27 28 27 29 33 34 34 32 32 33 34 34 32 30 28 25 23 23 26 25 24 23 23 24 24 28
3 2 3 3 3 4 4 5 5 5 8 5 1 4 7 11 14 20 24 24 30 32 30 29 29 32 31 33 32 31 32 32 33 33 33 33 31 31 27 25 25 25 26 26 25 26 25 26 30
2 1 1 1 0 2 4 7 7 4 7 7 4 5 12 9 28 32 31 28 26 29 32 32 32 30 32 33 33 34 33 32 32 32 32 33 32 29 28 28 26 27 29 28 28 28 29 29 29
1 0 2 2 5 6 5 4 5 5 6 6 9 12 21 28 33 40 41 35 27 29 33 33 32 32 34 33 33 34 34 33 33 34 34 34 32 30 29 30 29 28 27 28 27 30 31 31 33
0 1 1 1 2 4 5 5 4 4 4 2 6 21 30 38 39 45 42 34 27 29 34 35 34 33 36 34 34 34 36 35 35 35 34 32 32 32 31 30 29 31 31 32 33 32 32 32 34
2 2 2 3 4 3 3 8 3 4 5 3 20 29 38 42 48 49 44 37 33 32 36 35 33 35 35 34 35 36 37 37 36 35 33 31 32 33 33 32 32 33 33 32 33 34 32 35 37
Wind_Direction
33 106 91 62 13 77 62 73 43 30 62 24 14 9 8 50 15 298 185 279 351 331 332 335 341 342 340 339 339 346 343 329 298 303 291 270 278 287 295 260 240 235 226 222 212 204 184 182 176
74 92 72 296 58 113 90 61 67 56 35 324 218 337 216 93 82 107 190 283 344 328 328 330 341 339 336 333 332 336 340 335 322 303 298 278 261 266 287 262 235 227 222 218 214 207 191 187 183
88 81 11 314 24 64 105 71 79 105 68 16 20 87 43 77 141 173 238 301 355 319 316 327 338 340 341 338 332 326 331 332 330 313 305 289 267 263 263 274 251 230 221 213 212 212 200 193 189
79 23 312 63 97 26 75 78 52 118 143 105 24 5 80 195 161 216 287 329 319 316 318 327 339 343 347 349 344 339 329 332 326 325 306 298 284 265 259 262 265 244 223 215 211 215 210 197 196
31 268 99 96 71 107 73 64 17 338 127 0 24 14 349 228 272 268 286 324 313 317 323 331 341 350 355 354 358 354 344 339 331 325 315 305 289 277 266 256 262 275 220 211 217 218 214 203 199
285 247 33 90 102 99 95 53 320 250 1 337 55 348 146 236 291 285 318 310 308 316 321 332 344 354 1 4 2 360 356 347 342 334 322 311 301 290 274 250 259 262 232 209 213 217 216 207 201
307 42 65 106 127 160 105 30 319 7 285 47 79 285 272 303 281 278 317 297 299 304 318 333 344 350 360 7 7 8 3 359 355 345 335 319 315 295 290 270 262 256 249 207 203 215 215 210 204
6 85 123 356 140 101 92 338 234 296 339 338 265 197 59 104 263 290 311 295 299 305 315 321 333 340 351 360 9 5 2 359 0 1 353 339 319 313 299 273 271 256 243 220 204 206 221 210 205
360 66 86 58 331 105 112 350 101 263 268 272 247 269 279 273 278 297 295 296 312 315 312 315 322 329 339 350 353 358 358 358 357 354 359 355 347 321 306 284 271 258 254 224 210 208 219 210 203
40 76 67 16 39 29 72 87 335 299 272 246 253 261 269 273 296 287 280 279 286 287 292 306 312 311 314 322 331 342 348 351 351 352 348 353 355 347 322 300 281 263 258 232 216 217 225 223 203
7 93 136 105 76 36 335 287 217 277 272 252 309 295 302 292 295 291 269 263 266 265 271 284 301 304 306 311 322 328 336 339 341 343 343 343 345 351 338 322 292 267 252 245 228 223 229 224 205
93 58 51 111 67 338 298 304 273 231 226 261 302 278 266 266 275 281 273 272 262 268 280 289 295 301 304 307 314 320 324 329 331 335 336 337 336 341 345 328 319 289 265 253 246 230 227 226 216
71 125 89 139 158 291 289 269 260 265 243 252 263 264 273 281 282 268 271 268 266 266 270 276 288 295 300 304 309 313 317 324 326 328 330 332 332 332 335 337 323 312 300 263 266 277 222 223 241
97 127 122 172 262 287 280 269 330 275 223 214 246 259 272 272 275 273 267 267 267 279 278 277 280 287 291 298 304 310 312 317 321 325 328 329 328 325 325 328 327 320 306 279 286 250 257 235 267
136 135 173 186 250 300 328 283 226 229 170 196 233 252 269 283 288 289 278 268 266 275 280 278 282 286 289 294 300 305 308 313 318 323 329 331 326 320 316 317 319 316 307 291 258 268 242 254 245
220 151 322 138 315 282 15 278 222 196 195 219 233 249 264 285 303 306 301 284 282 279 268 276 274 272 278 288 295 300 306 311 316 324 324 327 322 314 312 308 308 307 302 287 273 260 237 239 254
289 333 343 311 110 318 175 271 339 176 207 236 243 247 252 261 286 317 326 309 298 295 288 287 279 276 282 288 292 298 303 308 308 310 311 316 319 307 304 303 301 296 294 295 274 261 248 232 241
335 340 332 279 46 293 264 262 269 257 229 226 241 245 239 246 263 309 333 331 313 291 286 290 288 280 278 283 291 297 299 300 301 303 309 314 312 292 295 296 293 289 293 285 272 249 240 232 232
233 253 267 267 49 346 280 287 284 262 248 218 225 230 236 230 249 292 312 320 321 314 297 289 287 286 282 285 288 293 296 300 301 305 309 315 311 303 291 288 284 278 278 278 270 258 248 238 237
270 270 290 306 126 334 305 299 297 236 229 234 225 218 226 226 251 281 290 298 302 305 299 290 288 283 283 283 285 291 297 299 302 306 308 312 313 312 310 299 287 280 275 272 266 260 254 242 217
310 354 28 278 320 258 305 297 186 43 115 215 217 216 216 228 246 265 278 286 294 298 300 298 291 285 281 280 281 282 294 297 298 300 300 297 290 280 276 285 286 280 272 271 268 257 251 245 218
307 51 342 320 7 304 21 278 316 116 188 194 216 214 227 247 268 280 289 293 289 294 287 290 290 288 286 279 274 285 290 294 298 299 299 296 295 288 285 284 283 279 268 266 267 259 247 242 231
271 353 282 291 216 38 168 61 272 3 302 222 210 224 237 248 254 273 279 289 298 302 284 285 291 288 279 276 278 285 283 291 297 295 295 293 293 287 281 282 284 281 270 261 259 260 248 240 231
305 319 179 138 66 9 206 100 288 95 17 71 80 90 171 231 271 288 295 292 296 301 293 288 293 295 288 284 285 287 290 292 292 293 289 287 286 284 278 277 275 277 276 265 257 257 251 242 238
320 359 316 347 348 231 190 13 249 301 272 54 79 82 247 283 301 300 299 294 294 298 299 290 289 290 283 287 293 293 287 287 286 287 287 286 284 277 275 267 267 270 272 274 263 257 255 246 240
323 138 113 293 297 299 172 232 256 167 121 95 80 269 290 328 332 315 308 294 290 297 302 297 292 295 297 300 301 298 293 289 287 285 286 284 281 276 270 267 258 257 261 262 263 258 253 249 243
340 10 307 320 113 38 227 269 322 91 93 106 90 300 290 291 319 325 324 313 299 300 307 304 301 300 306 307 304 299 297 295 290 289 287 283 280 274 272 266 267 258 258 259 261 260 256 251 246
98 284 27 349 336 303 272 244 233 213 120 67 46 339 332 324 324 329 328 322 308 309 318 311 306 307 308 309 307 303 300 296 290 287 286 281 277 267 264 262 257 254 253 259 259 259 257 252 249
166 11 336 113 153 215 305 257 213 168 158 160 319 317 324 326 323 326 329 321 309 304 320 313 304 309 311 309 309 306 303 299 294 291 288 283 275 269 263 259 259 260 259 257 256 255 257 257 250
334 287 177 138 264 224 174 268 287 161 149 323 315 325 324 326 326 326 324 322 313 311 317 314 309 310 313 312 309 306 304 303 298 295 290 286 276 273 267 259 254 254 257 256 254 256 253 254 254